Radio RS-1

operational
NORAD ID: 11085 Int'l Des: 1978-100 Owner: MAIO/MOM Country: SU
LEOCIRCULARPOLAR

Über Radio RS-1

Beschreibung wird geladen...

Live-Position

3D-Globus wird geladen...

Nächste Überflüge

Höhenverlauf

Altitude vs Time

uPlot chart will show altitude changes over time

Zweizeiliger Elementsatz

1 11085U 78100B 26062.62949795 .00000010 00000-0 13904-4 0 9990
2 11085 82.5442 106.1536 0013197 183.8704 296.9552 11.96568195 68199
Epoch: 3. März 2026 • Age: 25 hours

Aktueller Status

Höhe 1691.7 km
Geschwindigkeit 7.04 km/s
Subsatellitenpunkt 32.80°N, 99.96°E
Startdatum 26. Okt. 1978
Alter 47.3 years
Typ other

Technische Details

Klassifizierung Payload
Masse 40.00 kg
Trockenmasse 40.00 kg
Gesamtmasse 40.00 kg
Länge 0.30 m
Durchmesser 0.40 m
Spannweite 1.50 m
Form Cyl + Ant
Hersteller MEI/MAIO
Bus-Typ RS
Phasenstatus In Orbit
Besitzer/Staat MAIO/MOM/SU

Große Konstellationen

Loading constellations...